Location: Kapla
(46.2483°N, 15.0094°E)
Time: 18:25:16
(UTC+00:00)

Cosmos 1610 Rocket - Pass Details

Date: 03 March 2021
Orbit: 953 x 1002 km, 82.9° (Epoch: 14 April)

Event Time Altitude Azimuth Distance (km) Brightness Sun altitude
Rises 17:37:21 0° 178° (S) 3,633 7.5 -9.1°
Reaches altitude 10° 17:39:50 10° 176° (S) 2,697 6.8 -9.6°
Maximum altitude 17:45:58 70° 94° (E) 1,033 4.5 -10.6°
Drops below altitude 10° 17:52:13 10° 13° (NNE) 2,749 6.8 -11.7°
Sets 17:54:46 0° 11° (N) 3,708 7.5 -12.1°
